OE5OVL-13 Weather Reports


time (UTC)temp
C
wind
direction
speed
KPH
gust
KPH
rain 1hr
cm
rain 24hr
cm
rain mn
cm
humidity
%
barometer
mb
20260507145339 19 0.0 0.0 0.00 0.00 0.00 45 728.6
20260507143827 20 0.0 0.0 0.00 0.00 0.00 44 728.8
20260507142315 20 0.0 0.0 0.00 0.00 0.00 44 729.1
20260507140804 20 0.0 0.0 0.00 0.00 0.00 44 728.9
20260507135252 20 0.0 0.0 0.00 0.00 0.00 43 729.2
20260507133740 20 0.0 0.0 0.00 0.00 0.00 42 729.2
20260507132229 21 0.0 0.0 0.00 0.00 0.00 40 730.8
20260507130717 21 0.0 0.0 0.00 0.00 0.00 38 730.8
20260507125205 21 0.0 0.0 0.00 0.00 0.00 40 731.0
20260507123653 22 0.0 0.0 0.00 0.00 0.00 41 731.6
20260507122142 21 0.0 0.0 0.00 0.00 0.00 40 731.1
20260507120630 22 0.0 0.0 0.00 0.00 0.00 39 731.4
20260507115118 22 0.0 0.0 0.00 0.00 0.00 40 732.2
20260507113606 22 0.0 0.0 0.00 0.00 0.00 40 732.1
20260507112054 22 0.0 0.0 0.00 0.00 0.00 41 732.4
20260507110543 22 0.0 0.0 0.00 0.00 0.00 42 731.6
20260507105031 20 0.0 0.0 0.00 0.00 0.00 46 729.0
20260507103519 20 0.0 0.0 0.00 0.00 0.00 47 728.8
20260507102008 20 0.0 0.0 0.00 0.00 0.00 47 729.1
20260507100456 20 0.0 0.0 0.00 0.00 0.00 46 728.9
20260507094944 19 0.0 0.0 0.00 0.00 0.00 47 728.3
20260507093432 18 0.0 0.0 0.00 0.00 0.00 49 727.8
20260507091921 18 0.0 0.0 0.00 0.00 0.00 50 727.7
20260507090409 18 0.0 0.0 0.00 0.00 0.00 49 727.1
20260507084857 17 0.0 0.0 0.00 0.00 0.00 50 726.5
20260507083345 17 0.0 0.0 0.00 0.00 0.00 51 726.1
20260507081834 17 0.0 0.0 0.00 0.00 0.00 54 726.0
20260507080322 17 0.0 0.0 0.00 0.00 0.00 56 725.6
20260507074810 16 0.0 0.0 0.00 0.00 0.00 56 725.1
20260507073258 16 0.0 0.0 0.00 0.00 0.00 60 724.7
20260507071747 16 0.0 0.0 0.00 0.00 0.00 63 724.5
20260507070235 15 0.0 0.0 0.00 0.00 0.00 65 723.9
20260507064723 15 0.0 0.0 0.00 0.00 0.00 67 723.1
20260507060148 13 0.0 0.0 0.00 0.00 0.00 69 722.2
20260507054636 14 0.0 0.0 0.00 0.00 0.00 69 722.3
20260507053124 14 0.0 0.0 0.00 0.00 0.00 70 722.7
20260507051613 14 0.0 0.0 0.00 0.00 0.00 71 722.3
20260507044549 13 0.0 0.0 0.00 0.00 0.00 74 721.8
20260507043037 13 0.0 0.0 0.00 0.00 0.00 76 721.2
20260507041526 12 0.0 0.0 0.00 0.00 0.00 76 720.6
20260507040014 12 0.0 0.0 0.00 0.00 0.00 75 720.9
20260507034502 13 0.0 0.0 0.00 0.00 0.00 74 721.3
20260507032950 13 0.0 0.0 0.00 0.00 0.00 73 721.6
20260507031439 13 0.0 0.0 0.00 0.00 0.00 72 722.0
20260507025927 14 0.0 0.0 0.00 0.00 0.00 70 722.4
20260507024417 15 0.0 0.0 0.00 0.00 0.00 69 722.9
20260507022903 14 0.0 0.0 0.00 0.00 0.00 69 722.8
20260507021352 15 0.0 0.0 0.00 0.00 0.00 68 723.0
20260507015840 15 0.0 0.0 0.00 0.00 0.00 69 722.9
20260507014328 14 0.0 0.0 0.00 0.00 0.00 69 722.8
20260507012821 15 0.0 0.0 0.00 0.00 0.00 69 723.1
20260507011304 15 0.0 0.0 0.00 0.00 0.00 69 723.3
20260507005755 15 0.0 0.0 0.00 0.00 0.00 69 723.0
20260507004243 15 0.0 0.0 0.00 0.00 0.00 69 723.1
20260507002729 15 0.0 0.0 0.00 0.00 0.00 69 723.1
20260507001218 15 0.0 0.0 0.00 0.00 0.00 69 723.1
20260506235728 15 0.0 0.0 0.00 0.00 0.00 70 723.3
20260506234154 15 0.0 0.0 0.00 0.00 0.00 70 723.4
20260506232654 15 0.0 0.0 0.00 0.00 0.00 69 723.6
20260506231131 15 0.0 0.0 0.00 0.00 0.00 69 723.5
20260506225619 15 0.0 0.0 0.00 0.00 0.00 68 723.7
20260506224107 15 0.0 0.0 0.00 0.00 0.00 69 723.9
20260506222555 16 0.0 0.0 0.00 0.00 0.00 73 724.1
20260506221044 16 0.0 0.0 0.00 0.00 0.00 73 724.2
20260506215532 16 0.0 0.0 0.00 0.00 0.00 74 724.3
20260506214020 16 0.0 0.0 0.00 0.00 0.00 76 724.8
20260506212508 16 0.0 0.0 0.00 0.00 0.00 73 724.9
20260506210958 17 0.0 0.0 0.00 0.00 0.00 73 725.8
20260506205445 17 0.0 0.0 0.00 0.00 0.00 72 725.9
20260506203933 17 0.0 0.0 0.00 0.00 0.00 69 726.1
20260506202421 17 0.0 0.0 0.00 0.00 0.00 65 726.1
20260506200910 18 0.0 0.0 0.00 0.00 0.00 59 726.8
20260506195358 18 0.0 0.0 0.00 0.00 0.00 56 727.4
20260506193846 19 0.0 0.0 0.00 0.00 0.00 53 728.2
20260506192335 20 0.0 0.0 0.00 0.00 0.00 49 729.0
20260506190823 21 0.0 0.0 0.00 0.00 0.00 46 729.9
20260506183759 22 0.0 0.0 0.00 0.00 0.00 36 732.2
20260506182247 23 0.0 0.0 0.00 0.00 0.00 37 732.6
20260506180736 23 0.0 0.0 0.00 0.00 0.00 34 733.6
20260506175224 24 0.0 0.0 0.00 0.00 0.00 34 734.0
20260506173712 25 0.0 0.0 0.00 0.00 0.00 32 734.9
20260506172201 26 0.0 0.0 0.00 0.00 0.00 29 736.7
20260506170649 32 0.0 0.0 0.00 0.00 0.00 24 743.2
20260506165137 26 0.0 0.0 0.00 0.00 0.00 32 736.2
20260506163625 25 0.0 0.0 0.00 0.00 0.00 32 735.4
20260506162114 26 0.0 0.0 0.00 0.00 0.00 32 736.7
20260506160602 26 0.0 0.0 0.00 0.00 0.00 33 736.0
20260506155050 26 0.0 0.0 0.00 0.00 0.00 33 735.9
20260506153538 26 0.0 0.0 0.00 0.00 0.00 32 735.9
20260506152026 26 0.0 0.0 0.00 0.00 0.00 32 736.4
20260506150516 27 0.0 0.0 0.00 0.00 0.00 31 737.2